,,Stat6,,Stat2,,Stat8,,Stat9,,Stat10,,Wind1,,Wind1,
time,status,PA1M_AVG,status,PR1M_SUM,status,RH1M_AVG,status,SR1M_AVG,status,TA1M_AVG,status,W1dAve1m,status,W1sAve1m,
2008-01-12, 00:00:00,VALID,918.005,VALID,0,VALID,99.9794,VALID,0.0679233,VALID,20.2362,VALID,20,VALID,0.935296,
2008-01-12, 00:01:00,VALID,918.001,VALID,0,VALID,99.9733,VALID,0.0509425,VALID,20.2297,VALID,15,VALID,0.827778,
2008-01-12, 00:02:00,VALID,917.987,VALID,0,VALID,99.9964,VALID,0,VALID,20.2272,VALID,15,VALID,0.212054,
2008-01-12, 00:03:00,VALID,917.991,VALID,0,VALID,100,VALID,0.0509425,VALID,20.2237,VALID,15,VALID,0,
2008-01-12, 00:04:00,VALID,917.991,VALID,0,VALID,100,VALID,0.0169808,VALID,20.2237,VALID,9,VALID,0,
2008-01-12, 00:05:00,VALID,917.987,VALID,0,VALID,100,VALID,0.0169808,VALID,20.2137,VALID,353,VALID,0,
2008-01-12, 00:06:00,VALID,917.983,VALID,0,VALID,100,VALID,0.0339617,VALID,20.2237,VALID,356,VALID,0,
2008-01-12, 00:07:00,VALID,917.978,VALID,0,VALID,100,VALID,0.0339617,VALID,20.2269,VALID,8,VALID,0,
2008-01-12, 00:08:00,VALID,917.972,VALID,0,VALID,100,VALID,0.0679233,VALID,20.2367,VALID,8,VALID,0,
2008-01-12, 00:09:00,VALID,917.974,VALID,0,VALID,100,VALID,0.0849042,VALID,20.2554,VALID,8,VALID,0,
2008-01-12, 00:10:00,VALID,917.987,VALID,0,VALID,100,VALID,0.0679233,VALID,20.2951,VALID,8,VALID,0,
2008-01-12, 00:11:00,VALID,917.976,VALID,0,VALID,100,VALID,0.0339617,VALID,20.3118,VALID,8,VALID,0,
2008-01-12, 00:12:00,VALID,917.976,VALID,0,VALID,100,VALID,-0.0339617,VALID,20.3218,VALID,8,VALID,0,
2008-01-12, 00:13:00,VALID,917.987,VALID,0,VALID,100,VALID,-0.0679233,VALID,20.3191,VALID,8,VALID,0,
2008-01-12, 00:14:00,VALID,917.973,VALID,0,VALID,100,VALID,-0.0849042,VALID,20.3126,VALID,8,VALID,0,
2008-01-12, 00:15:00,VALID,917.965,VALID,0,VALID,99.9929,VALID,-0.0849042,VALID,20.3169,VALID,8,VALID,0,
2008-01-12, 00:16:00,VALID,917.962,VALID,0,VALID,99.9977,VALID,-0.101885,VALID,20.2934,VALID,8,VALID,0,
2008-01-12, 00:17:00,VALID,917.945,VALID,0,VALID,99.9557,VALID,-0.0679233,VALID,20.2769,VALID,8,VALID,0,
2008-01-12, 00:18:00,VALID,917.934,VALID,0,VALID,99.9832,VALID,-0.0849042,VALID,20.2577,VALID,8,VALID,0,
2008-01-12, 00:19:00,VALID,917.955,VALID,0,VALID,99.9087,VALID,-0.0509425,VALID,20.2347,VALID,8,VALID,0,
2008-01-12, 00:20:00,VALID,917.947,VALID,0,VALID,99.9456,VALID,-0.0509425,VALID,20.199,VALID,8,VALID,0,
2008-01-12, 00:21:00,VALID,917.939,VALID,0,VALID,100,VALID,-0.0509425,VALID,20.1825,VALID,26,VALID,0,
2008-01-12, 00:22:00,VALID,917.928,VALID,0,VALID,100,VALID,-0.0339617,VALID,20.1955,VALID,38,VALID,0,
2008-01-12, 00:23:00,VALID,917.919,VALID,0,VALID,100,VALID,-0.0339617,VALID,20.1828,VALID,42,VALID,0,
2008-01-12, 00:24:00,VALID,917.905,VALID,0,VALID,100,VALID,-0.0169808,VALID,20.1596,VALID,42,VALID,0,
2008-01-12, 00:25:00,VALID,917.893,VALID,0,VALID,99.9941,VALID,-0.0509425,VALID,20.1114,VALID,42,VALID,0,
2008-01-12, 00:26:00,VALID,917.867,VALID,0,VALID,99.999,VALID,-0.0679233,VALID,20.0595,VALID,42,VALID,0,
2008-01-12, 00:27:00,VALID,917.857,VALID,0,VALID,100,VALID,-0.0339617,VALID,20.0592,VALID,42,VALID,0,
2008-01-12, 00:28:00,VALID,917.847,VALID,0,VALID,100,VALID,0,VALID,20.0427,VALID,42,VALID,0,
2008-01-12, 00:29:00,VALID,917.838,VALID,0,VALID,100,VALID,0,VALID,20.0527,VALID,42,VALID,0,
2008-01-12, 00:30:00,VALID,917.836,VALID,0,VALID,100,VALID,0,VALID,20.0365,VALID,42,VALID,0,
2008-01-12, 00:31:00,VALID,917.829,VALID,0,VALID,100,VALID,-0.0339617,VALID,20.0303,VALID,42,VALID,0,
2008-01-12, 00:32:00,VALID,917.83,VALID,0,VALID,100,VALID,0,VALID,20.04,VALID,42,VALID,0,
2008-01-12, 00:33:00,VALID,917.821,VALID,0,VALID,100,VALID,0.0169808,VALID,20.0395,VALID,42,VALID,0,
2008-01-12, 00:34:00,VALID,917.809,VALID,0,VALID,100,VALID,0,VALID,19.9876,VALID,42,VALID,0,
2008-01-12, 00:35:00,VALID,917.779,VALID,0,VALID,100,VALID,0.0169808,VALID,19.9289,VALID,42,VALID,0,
2008-01-12, 00:36:00,VALID,917.765,VALID,0,VALID,100,VALID,0.0169808,VALID,19.8635,VALID,42,VALID,0,
2008-01-12, 00:37:00,VALID,917.738,VALID,0,VALID,100,VALID,0.0169808,VALID,19.8248,VALID,42,VALID,0,
2008-01-12, 00:38:00,VALID,917.707,VALID,0,VALID,100,VALID,0.0339617,VALID,19.7832,VALID,42,VALID,0,
2008-01-12, 00:39:00,VALID,917.685,VALID,0,VALID,99.999,VALID,0.0169808,VALID,19.7045,VALID,42,VALID,0,
2008-01-12, 00:40:00,VALID,917.666,VALID,0,VALID,100,VALID,0.0169808,VALID,19.6923,VALID,42,VALID,0,
2008-01-12, 00:41:00,VALID,917.656,VALID,0,VALID,100,VALID,0.0169808,VALID,19.6596,VALID,42,VALID,0,
2008-01-12, 00:42:00,VALID,917.656,VALID,0,VALID,100,VALID,0,VALID,19.7053,VALID,42,VALID,0,
2008-01-12, 00:43:00,VALID,917.65,VALID,0,VALID,100,VALID,0,VALID,19.7345,VALID,42,VALID,0,
2008-01-12, 00:44:00,VALID,917.648,VALID,0,VALID,100,VALID,0,VALID,19.7148,VALID,42,VALID,0,
2008-01-12, 00:45:00,VALID,917.65,VALID,0,VALID,100,VALID,0.0169808,VALID,19.7053,VALID,42,VALID,0,
2008-01-12, 00:46:00,VALID,917.653,VALID,0,VALID,100,VALID,-0.0169808,VALID,19.6559,VALID,39,VALID,0,
2008-01-12, 00:47:00,VALID,917.646,VALID,0,VALID,100,VALID,0,VALID,19.6369,VALID,28,VALID,0,
2008-01-12, 00:48:00,VALID,917.661,VALID,0,VALID,100,VALID,0,VALID,19.6601,VALID,28,VALID,0.459985,
2008-01-12, 00:49:00,VALID,917.652,VALID,0,VALID,100,VALID,0,VALID,19.7053,VALID,12,VALID,0.819336,
2008-01-12, 00:50:00,VALID,917.663,VALID,0,VALID,100,VALID,0,VALID,19.715,VALID,12,VALID,0.459335,
2008-01-12, 00:51:00,VALID,917.665,VALID,0,VALID,100,VALID,0,VALID,19.7313,VALID,10,VALID,0.130766,
2008-01-12, 00:52:00,VALID,917.658,VALID,0,VALID,100,VALID,0.0169808,VALID,19.741,VALID,10,VALID,0,
2008-01-12, 00:53:00,VALID,917.632,VALID,0,VALID,100,VALID,-0.0169808,VALID,19.6918,VALID,10,VALID,0,
2008-01-12, 00:54:00,VALID,917.61,VALID,0,VALID,100,VALID,0.0169808,VALID,19.6367,VALID,10,VALID,0,
2008-01-12, 00:55:00,VALID,917.609,VALID,0,VALID,100,VALID,0,VALID,19.594,VALID,10,VALID,0,
2008-01-12, 00:56:00,VALID,917.598,VALID,0,VALID,100,VALID,0,VALID,19.5843,VALID,10,VALID,0,
2008-01-12, 00:57:00,VALID,917.605,VALID,0,VALID,100,VALID,0.0169808,VALID,19.5715,VALID,22,VALID,0,
2008-01-12, 00:58:00,VALID,917.592,VALID,0,VALID,100,VALID,0,VALID,19.5723,VALID,25,VALID,0,
2008-01-12, 00:59:00,VALID,917.595,VALID,0,VALID,100,VALID,-0.0169808,VALID,19.6145,VALID,23,VALID,0,
2008-01-12, 01:00:00,VALID,917.593,VALID,0,VALID,100,VALID,0,VALID,19.6626,VALID,14,VALID,0.621366,
2008-01-12, 01:01:00,VALID,917.583,VALID,0,VALID,100,VALID,-0.0169808,VALID,19.6821,VALID,14,VALID,0.815278,
2008-01-12, 01:02:00,VALID,917.57,VALID,0,VALID,100,VALID,0,VALID,19.7143,VALID,15,VALID,0.731148,
2008-01-12, 01:03:00,VALID,917.561,VALID,0,VALID,100,VALID,0.0339617,VALID,19.7173,VALID,15,VALID,0.510831,
2008-01-12, 01:04:00,VALID,917.564,VALID,0,VALID,100,VALID,0,VALID,19.7043,VALID,15,VALID,0.0989583,
2008-01-12, 01:05:00,VALID,917.571,VALID,0,VALID,100,VALID,-0.0169808,VALID,19.7205,VALID,15,VALID,0.0401786,
2008-01-12, 01:06:00,VALID,917.564,VALID,0,VALID,100,VALID,0,VALID,19.75,VALID,15,VALID,0,
2008-01-12, 01:07:00,VALID,917.561,VALID,0,VALID,100,VALID,0,VALID,19.7759,VALID,15,VALID,0,
2008-01-12, 01:08:00,VALID,917.548,VALID,0,VALID,100,VALID,0,VALID,19.7989,VALID,15,VALID,0,
2008-01-12, 01:09:00,VALID,917.559,VALID,0,VALID,100,VALID,0.0169808,VALID,19.8213,VALID,15,VALID,0,
2008-01-12, 01:10:00,VALID,917.531,VALID,0,VALID,100,VALID,-0.0339617,VALID,19.8545,VALID,15,VALID,0.135547,
2008-01-12, 01:11:00,VALID,917.538,VALID,0,VALID,100,VALID,0.0339617,VALID,19.8446,VALID,14,VALID,0.775781,
2008-01-12, 01:12:00,VALID,917.52,VALID,0,VALID,100,VALID,0,VALID,19.8343,VALID,13,VALID,0.613281,
2008-01-12, 01:13:00,VALID,917.519,VALID,0,VALID,100,VALID,0.0339617,VALID,19.8403,VALID,13,VALID,0.626598,
2008-01-12, 01:14:00,VALID,917.519,VALID,0,VALID,100,VALID,0.0509425,VALID,19.8698,VALID,13,VALID,0.337573,
2008-01-12, 01:15:00,VALID,917.513,VALID,0,VALID,100,VALID,0.0509425,VALID,19.899,VALID,10,VALID,0.450945,
2008-01-12, 01:16:00,VALID,917.512,VALID,0,VALID,100,VALID,0.0679233,VALID,19.9119,VALID,351,VALID,0.365916,
2008-01-12, 01:17:00,VALID,917.515,VALID,0,VALID,100,VALID,0.0679233,VALID,19.9217,VALID,357,VALID,0.603795,
2008-01-12, 01:18:00,VALID,917.507,VALID,0,VALID,100,VALID,0.0169808,VALID,19.9052,VALID,336,VALID,0.867759,
2008-01-12, 01:19:00,VALID,917.508,VALID,0,VALID,100,VALID,0.0509425,VALID,19.9087,VALID,16,VALID,1.26367,
2008-01-12, 01:20:00,VALID,917.497,VALID,0,VALID,100,VALID,0.0509425,VALID,19.8952,VALID,3,VALID,0.892187,
2008-01-12, 01:21:00,VALID,917.496,VALID,0,VALID,100,VALID,0.0509425,VALID,19.9057,VALID,360,VALID,0.557813,
2008-01-12, 01:22:00,VALID,917.491,VALID,0,VALID,100,VALID,0.0509425,VALID,19.9119,VALID,5,VALID,0.0779297,
2008-01-12, 01:23:00,VALID,917.467,VALID,0,VALID,100,VALID,0.0509425,VALID,19.9384,VALID,5,VALID,0,
2008-01-12, 01:24:00,VALID,917.466,VALID,0,VALID,100,VALID,0.0509425,VALID,19.9576,VALID,5,VALID,0,
2008-01-12, 01:25:00,VALID,917.464,VALID,0,VALID,100,VALID,0.0169808,VALID,19.9768,VALID,7,VALID,0.317116,
2008-01-12, 01:26:00,VALID,917.471,VALID,0,VALID,100,VALID,0.0169808,VALID,20.0125,VALID,7,VALID,0.526486,
2008-01-12, 01:27:00,VALID,917.473,VALID,0,VALID,100,VALID,-0.0169808,VALID,20.0228,VALID,20,VALID,0.512467,
2008-01-12, 01:28:00,VALID,917.479,VALID,0,VALID,100,VALID,-0.0509425,VALID,20.0595,VALID,20,VALID,0.710556,
2008-01-12, 01:29:00,VALID,917.487,VALID,0,VALID,100,VALID,-0.0509425,VALID,20.0757,VALID,26,VALID,0.83576,
2008-01-12, 01:30:00,VALID,917.481,VALID,0,VALID,100,VALID,-0.0679233,VALID,20.0852,VALID,24,VALID,0.829055,
2008-01-12, 01:31:00,VALID,917.465,VALID,0,VALID,100,VALID,-0.0679233,VALID,20.069,VALID,26,VALID,0.440104,
2008-01-12, 01:32:00,VALID,917.438,VALID,0,VALID,100,VALID,-0.0509425,VALID,20.066,VALID,26,VALID,0.535334,
2008-01-12, 01:33:00,VALID,917.436,VALID,0,VALID,100,VALID,-0.101885,VALID,20.0238,VALID,14,VALID,0.872569,
2008-01-12, 01:34:00,VALID,917.418,VALID,0,VALID,100,VALID,-0.0509425,VALID,20.014,VALID,23,VALID,0.89881,
2008-01-12, 01:35:00,VALID,917.411,VALID,0,VALID,100,VALID,-0.0679233,VALID,19.9946,VALID,16,VALID,0.941034,
2008-01-12, 01:36:00,VALID,917.433,VALID,0,VALID,100,VALID,-0.0339617,VALID,19.9721,VALID,15,VALID,0.947173,
2008-01-12, 01:37:00,VALID,917.409,VALID,0,VALID,100,VALID,-0.101885,VALID,19.9297,VALID,23,VALID,0.955221,
2008-01-12, 01:38:00,VALID,917.415,VALID,0,VALID,100,VALID,-0.0509425,VALID,19.9037,VALID,26,VALID,0.811012,
2008-01-12, 01:39:00,VALID,917.417,VALID,0,VALID,100,VALID,-0.0509425,VALID,19.8972,VALID,21,VALID,0.310632,
2008-01-12, 01:40:00,VALID,917.408,VALID,0,VALID,100,VALID,-0.0509425,VALID,19.8872,VALID,24,VALID,0,
2008-01-12, 01:41:00,VALID,917.398,VALID,0,VALID,100,VALID,-0.0679233,VALID,19.8907,VALID,25,VALID,0.0519622,
2008-01-12, 01:42:00,VALID,917.383,VALID,0,VALID,100,VALID,-0.0509425,VALID,19.9105,VALID,25,VALID,0.171689,
2008-01-12, 01:43:00,VALID,917.362,VALID,0,VALID,100,VALID,-0.101885,VALID,19.9005,VALID,25,VALID,0,
2008-01-12, 01:44:00,VALID,917.355,VALID,0,VALID,100,VALID,-0.0679233,VALID,19.8972,VALID,18,VALID,0.346839,
2008-01-12, 01:45:00,VALID,917.335,VALID,0,VALID,100,VALID,-0.101885,VALID,19.9005,VALID,9,VALID,0.114063,
2008-01-12, 01:46:00,VALID,917.324,VALID,0,VALID,100,VALID,-0.101885,VALID,19.9005,VALID,9,VALID,0,
2008-01-12, 01:47:00,VALID,917.311,VALID,0,VALID,100,VALID,-0.0679233,VALID,19.8942,VALID,9,VALID,0,
2008-01-12, 01:48:00,VALID,917.299,VALID,0,VALID,100,VALID,-0.0339617,VALID,19.9037,VALID,9,VALID,0,
2008-01-12, 01:49:00,VALID,917.294,VALID,0,VALID,100,VALID,-0.0679233,VALID,19.9002,VALID,9,VALID,0.0158067,
2008-01-12, 01:50:00,VALID,917.286,VALID,0,VALID,100,VALID,-0.0509425,VALID,19.9234,VALID,9,VALID,0.0811435,
2008-01-12, 01:51:00,VALID,917.273,VALID,0,VALID,100,VALID,-0.101885,VALID,19.9329,VALID,9,VALID,0,
2008-01-12, 01:52:00,VALID,917.283,VALID,0,VALID,100,VALID,-0.101885,VALID,19.9491,VALID,9,VALID,0,
2008-01-12, 01:53:00,VALID,917.279,VALID,0,VALID,100,VALID,-0.0509425,VALID,19.9754,VALID,9,VALID,0,
2008-01-12, 01:54:00,VALID,917.299,VALID,0,VALID,100,VALID,-0.0849042,VALID,19.9881,VALID,9,VALID,0,
2008-01-12, 01:55:00,VALID,917.305,VALID,0,VALID,100,VALID,-0.0679233,VALID,19.9883,VALID,9,VALID,0.0377907,
2008-01-12, 01:56:00,VALID,917.315,VALID,0,VALID,100,VALID,-0.0509425,VALID,19.9816,VALID,343,VALID,0.27567,
2008-01-12, 01:57:00,VALID,917.322,VALID,0,VALID,100,VALID,-0.0679233,VALID,19.9689,VALID,326,VALID,0.0632267,
2008-01-12, 01:58:00,VALID,917.326,VALID,0,VALID,100,VALID,-0.0849042,VALID,19.9521,VALID,326,VALID,0,
2008-01-12, 01:59:00,VALID,917.328,VALID,0,VALID,100,VALID,-0.0849042,VALID,19.9626,VALID,326,VALID,0,
2008-01-12, 02:00:00,VALID,917.303,VALID,0,VALID,100,VALID,-0.0679233,VALID,19.9754,VALID,326,VALID,0,
2008-01-12, 02:01:00,VALID,917.29,VALID,0,VALID,100,VALID,-0.0679233,VALID,19.9818,VALID,326,VALID,0,
2008-01-12, 02:02:00,VALID,917.271,VALID,0,VALID,100,VALID,-0.0849042,VALID,19.9916,VALID,326,VALID,0,
2008-01-12, 02:03:00,VALID,917.254,VALID,0,VALID,100,VALID,-0.101885,VALID,19.9824,VALID,326,VALID,0,
2008-01-12, 02:04:00,VALID,917.226,VALID,0,VALID,100,VALID,-0.0849042,VALID,19.9719,VALID,335,VALID,0,
2008-01-12, 02:05:00,VALID,917.204,VALID,0,VALID,100,VALID,-0.0679233,VALID,19.9883,VALID,337,VALID,0,
2008-01-12, 02:06:00,VALID,917.199,VALID,0,VALID,100,VALID,-0.0849042,VALID,19.9978,VALID,337,VALID,0,
2008-01-12, 02:07:00,VALID,917.216,VALID,0,VALID,100,VALID,-0.0849042,VALID,19.9946,VALID,337,VALID,0,
2008-01-12, 02:08:00,VALID,917.219,VALID,0,VALID,100,VALID,-0.101885,VALID,19.9818,VALID,344,VALID,0,
2008-01-12, 02:09:00,VALID,917.219,VALID,0,VALID,100,VALID,-0.101885,VALID,19.9656,VALID,353,VALID,0,
2008-01-12, 02:10:00,VALID,917.215,VALID,0,VALID,100,VALID,-0.101885,VALID,19.9526,VALID,353,VALID,0,
2008-01-12, 02:11:00,VALID,917.195,VALID,0,VALID,100,VALID,-0.101885,VALID,19.9299,VALID,354,VALID,0,
2008-01-12, 02:12:00,VALID,917.196,VALID,0,VALID,100,VALID,-0.0339617,VALID,19.9095,VALID,354,VALID,0,
2008-01-12, 02:13:00,VALID,917.178,VALID,0,VALID,100,VALID,0.0169808,VALID,19.9055,VALID,354,VALID,0,
2008-01-12, 02:14:00,VALID,917.171,VALID,0,VALID,100,VALID,0.0169808,VALID,19.906,VALID,354,VALID,0,
2008-01-12, 02:15:00,VALID,917.151,VALID,0,VALID,100,VALID,0,VALID,19.9089,VALID,354,VALID,0,
2008-01-12, 02:16:00,VALID,917.156,VALID,0,VALID,100,VALID,0,VALID,19.91,VALID,354,VALID,0,
2008-01-12, 02:17:00,VALID,917.152,VALID,0,VALID,100,VALID,0,VALID,19.8962,VALID,354,VALID,0,
2008-01-12, 02:18:00,VALID,917.147,VALID,0,VALID,100,VALID,0.0169808,VALID,19.8995,VALID,354,VALID,0,
2008-01-12, 02:19:00,VALID,917.153,VALID,0,VALID,100,VALID,0,VALID,19.8892,VALID,354,VALID,0,
2008-01-12, 02:20:00,VALID,917.158,VALID,0,VALID,100,VALID,-0.0169808,VALID,19.876,VALID,354,VALID,0,
2008-01-12, 02:21:00,VALID,917.171,VALID,0,VALID,100,VALID,0,VALID,19.87,VALID,354,VALID,0,
2008-01-12, 02:22:00,VALID,917.172,VALID,0,VALID,100,VALID,0,VALID,19.864,VALID,354,VALID,0,
2008-01-12, 02:23:00,VALID,917.181,VALID,0,VALID,100,VALID,0,VALID,19.8703,VALID,354,VALID,0,
2008-01-12, 02:24:00,VALID,917.182,VALID,0,VALID,100,VALID,0,VALID,19.8635,VALID,354,VALID,0,
2008-01-12, 02:25:00,VALID,917.169,VALID,0,VALID,100,VALID,0.0169808,VALID,19.8705,VALID,354,VALID,0,
2008-01-12, 02:26:00,VALID,917.168,VALID,0,VALID,100,VALID,-0.0169808,VALID,19.8703,VALID,354,VALID,0,
2008-01-12, 02:27:00,VALID,917.146,VALID,0,VALID,100,VALID,-0.0849042,VALID,19.8518,VALID,354,VALID,0,
2008-01-12, 02:28:00,VALID,917.132,VALID,0,VALID,100,VALID,-0.118866,VALID,19.8166,VALID,354,VALID,0,
2008-01-12, 02:29:00,VALID,917.113,VALID,0,VALID,100,VALID,-0.118866,VALID,19.7912,VALID,354,VALID,0,
2008-01-12, 02:30:00,VALID,917.122,VALID,0,VALID,100,VALID,-0.118866,VALID,19.7682,VALID,355,VALID,0.290305,
2008-01-12, 02:31:00,VALID,917.126,VALID,0,VALID,100,VALID,-0.101885,VALID,19.7485,VALID,356,VALID,0.327431,
2008-01-12, 02:32:00,VALID,917.137,VALID,0,VALID,100,VALID,-0.101885,VALID,19.7457,VALID,356,VALID,0,
2008-01-12, 02:33:00,VALID,917.157,VALID,0,VALID,100,VALID,-0.135847,VALID,19.7163,VALID,356,VALID,0,
2008-01-12, 02:34:00,VALID,917.152,VALID,0,VALID,100,VALID,-0.118866,VALID,19.6973,VALID,356,VALID,0,
2008-01-12, 02:35:00,VALID,917.161,VALID,0,VALID,100,VALID,-0.118866,VALID,19.6716,VALID,360,VALID,0.231831,
2008-01-12, 02:36:00,VALID,917.155,VALID,0,VALID,100,VALID,-0.152827,VALID,19.6389,VALID,2,VALID,0.0463423,
2008-01-12, 02:37:00,VALID,917.154,VALID,0,VALID,100,VALID,-0.101885,VALID,19.6391,VALID,2,VALID,0,
2008-01-12, 02:38:00,VALID,917.16,VALID,0,VALID,100,VALID,-0.118866,VALID,19.6162,VALID,2,VALID,0,
2008-01-12, 02:39:00,VALID,917.148,VALID,0,VALID,100,VALID,-0.0849042,VALID,19.5733,VALID,2,VALID,0,
2008-01-12, 02:40:00,VALID,917.166,VALID,0,VALID,100,VALID,-0.118866,VALID,19.5635,VALID,2,VALID,0,
2008-01-12, 02:41:00,VALID,917.161,VALID,0,VALID,100,VALID,-0.135847,VALID,19.561,VALID,2,VALID,0,
2008-01-12, 02:42:00,VALID,917.152,VALID,0,VALID,100,VALID,-0.101885,VALID,19.5209,VALID,2,VALID,0,
2008-01-12, 02:43:00,VALID,917.135,VALID,0,VALID,100,VALID,-0.101885,VALID,19.4919,VALID,2,VALID,0.031851,
2008-01-12, 02:44:00,VALID,917.13,VALID,0,VALID,100,VALID,-0.118866,VALID,19.4527,VALID,9,VALID,0,
2008-01-12, 02:45:00,VALID,917.103,VALID,0,VALID,100,VALID,-0.0849042,VALID,19.4143,VALID,43,VALID,0,
2008-01-12, 02:46:00,VALID,917.098,VALID,0,VALID,100,VALID,-0.118866,VALID,19.3786,VALID,43,VALID,0,
2008-01-12, 02:47:00,VALID,917.085,VALID,0,VALID,100,VALID,-0.101885,VALID,19.3394,VALID,43,VALID,0,
2008-01-12, 02:48:00,VALID,917.092,VALID,0,VALID,100,VALID,-0.101885,VALID,19.2942,VALID,44,VALID,0,
2008-01-12, 02:49:00,VALID,917.08,VALID,0,VALID,100,VALID,-0.0849042,VALID,19.2451,VALID,45,VALID,0,
2008-01-12, 02:50:00,VALID,917.061,VALID,0,VALID,100,VALID,-0.0849042,VALID,19.2259,VALID,45,VALID,0,
2008-01-12, 02:51:00,VALID,917.06,VALID,0,VALID,100,VALID,-0.0679233,VALID,19.2154,VALID,45,VALID,0,
2008-01-12, 02:52:00,VALID,917.035,VALID,0,VALID,100,VALID,-0.0849042,VALID,19.2321,VALID,45,VALID,0,
2008-01-12, 02:53:00,VALID,917.033,VALID,0,VALID,100,VALID,-0.101885,VALID,19.2456,VALID,45,VALID,0,
2008-01-12, 02:54:00,VALID,917.021,VALID,0,VALID,100,VALID,-0.101885,VALID,19.2586,VALID,45,VALID,0,
2008-01-12, 02:55:00,VALID,917.009,VALID,0,VALID,100,VALID,-0.0509425,VALID,19.2775,VALID,47,VALID,0,
2008-01-12, 02:56:00,VALID,917.009,VALID,0,VALID,100,VALID,-0.101885,VALID,19.3065,VALID,47,VALID,0,
2008-01-12, 02:57:00,VALID,916.99,VALID,0,VALID,100,VALID,-0.101885,VALID,19.3397,VALID,47,VALID,0,
2008-01-12, 02:58:00,VALID,916.986,VALID,0,VALID,100,VALID,-0.101885,VALID,19.3459,VALID,47,VALID,0,
2008-01-12, 02:59:00,VALID,916.961,VALID,0,VALID,100,VALID,-0.0849042,VALID,19.3427,VALID,47,VALID,0,
2008-01-12, 03:00:00,VALID,916.943,VALID,0,VALID,100,VALID,-0.0849042,VALID,19.3297,VALID,47,VALID,0,
2008-01-12, 03:01:00,VALID,916.929,VALID,0,VALID,100,VALID,-0.101885,VALID,19.3102,VALID,47,VALID,0,
2008-01-12, 03:02:00,VALID,916.904,VALID,0,VALID,100,VALID,-0.101885,VALID,19.301,VALID,48,VALID,0,
2008-01-12, 03:03:00,VALID,916.888,VALID,0,VALID,100,VALID,-0.101885,VALID,19.2713,VALID,48,VALID,0,
2008-01-12, 03:04:00,VALID,916.883,VALID,0,VALID,100,VALID,-0.101885,VALID,19.2718,VALID,51,VALID,0.565358,
2008-01-12, 03:05:00,VALID,916.849,VALID,0,VALID,100,VALID,-0.101885,VALID,19.2491,VALID,56,VALID,0.689844,
2008-01-12, 03:06:00,VALID,916.836,VALID,0,VALID,100,VALID,-0.169808,VALID,19.2236,VALID,56,VALID,0.425877,
2008-01-12, 03:07:00,VALID,916.838,VALID,0,VALID,100,VALID,-0.135847,VALID,19.1937,VALID,56,VALID,0,
2008-01-12, 03:08:00,VALID,916.817,VALID,0,VALID,100,VALID,-0.101885,VALID,19.171,VALID,56,VALID,0,
2008-01-12, 03:09:00,VALID,916.812,VALID,0,VALID,100,VALID,-0.118866,VALID,19.1547,VALID,57,VALID,0,
2008-01-12, 03:10:00,VALID,916.796,VALID,0,VALID,100,VALID,-0.118866,VALID,19.1288,VALID,58,VALID,0,
2008-01-12, 03:11:00,VALID,916.774,VALID,0,VALID,100,VALID,-0.0849042,VALID,19.1056,VALID,97,VALID,0.353906,
2008-01-12, 03:12:00,VALID,916.751,VALID,0,VALID,100,VALID,-0.0509425,VALID,19.0924,VALID,118,VALID,0.471058,
2008-01-12, 03:13:00,VALID,916.736,VALID,0,VALID,100,VALID,-0.0169808,VALID,19.1051,VALID,136,VALID,0.380556,
2008-01-12, 03:14:00,VALID,916.728,VALID,0,VALID,100,VALID,0,VALID,19.1046,VALID,147,VALID,0.406822,
2008-01-12, 03:15:00,VALID,916.714,VALID,0,VALID,100,VALID,0,VALID,19.1011,VALID,146,VALID,0.468564,
2008-01-12, 03:16:00,VALID,916.703,VALID,0,VALID,100,VALID,0.0339617,VALID,19.1109,VALID,153,VALID,0.560243,
2008-01-12, 03:17:00,VALID,916.685,VALID,0,VALID,100,VALID,0.0169808,VALID,19.1144,VALID,154,VALID,0.483467,
2008-01-12, 03:18:00,VALID,916.665,VALID,0,VALID,100,VALID,0,VALID,19.1046,VALID,138,VALID,0.600074,
2008-01-12, 03:19:00,VALID,916.652,VALID,0,VALID,100,VALID,0,VALID,19.1141,VALID,138,VALID,0.320668,
2008-01-12, 03:20:00,VALID,916.639,VALID,0,VALID,100,VALID,0,VALID,19.1303,VALID,150,VALID,0.563408,
2008-01-12, 03:21:00,VALID,916.633,VALID,0,VALID,100,VALID,0.0169808,VALID,19.1371,VALID,152,VALID,0.512251,
2008-01-12, 03:22:00,VALID,916.636,VALID,0,VALID,100,VALID,0,VALID,19.1401,VALID,154,VALID,0.680432,
2008-01-12, 03:23:00,VALID,916.651,VALID,0,VALID,100,VALID,0,VALID,19.1433,VALID,148,VALID,0.960193,
2008-01-12, 03:24:00,VALID,916.664,VALID,0,VALID,100,VALID,0,VALID,19.1336,VALID,142,VALID,0.712847,
2008-01-12, 03:25:00,VALID,916.679,VALID,0,VALID,100,VALID,0,VALID,19.1468,VALID,141,VALID,0.550881,
2008-01-12, 03:26:00,VALID,916.681,VALID,0,VALID,100,VALID,0,VALID,19.1563,VALID,145,VALID,0.994368,
2008-01-12, 03:27:00,VALID,916.702,VALID,0,VALID,100,VALID,-0.0169808,VALID,19.1563,VALID,161,VALID,1.09059,
2008-01-12, 03:28:00,VALID,916.706,VALID,0,VALID,100,VALID,0.0339617,VALID,19.1725,VALID,168,VALID,1.24276,
2008-01-12, 03:29:00,VALID,916.717,VALID,0,VALID,100,VALID,0.0169808,VALID,19.1852,VALID,179,VALID,0.716146,
2008-01-12, 03:30:00,VALID,916.725,VALID,0,VALID,100,VALID,0.0169808,VALID,19.201,VALID,196,VALID,0.375558,
2008-01-12, 03:31:00,VALID,916.722,VALID,0,VALID,100,VALID,0.0169808,VALID,19.2045,VALID,175,VALID,0.472917,
2008-01-12, 03:32:00,VALID,916.728,VALID,0,VALID,100,VALID,0.0849042,VALID,19.2112,VALID,168,VALID,0.709704,
2008-01-12, 03:33:00,VALID,916.738,VALID,0,VALID,100,VALID,0.0339617,VALID,19.2274,VALID,177,VALID,0.592988,
2008-01-12, 03:34:00,VALID,916.74,VALID,0,VALID,100,VALID,0.0169808,VALID,19.2209,VALID,173,VALID,1.01354,
2008-01-12, 03:35:00,VALID,916.767,VALID,0,VALID,100,VALID,0.0509425,VALID,19.2177,VALID,178,VALID,1.08013,
2008-01-12, 03:36:00,VALID,916.783,VALID,0,VALID,100,VALID,0.0339617,VALID,19.2214,VALID,174,VALID,0.897485,
2008-01-12, 03:37:00,VALID,916.808,VALID,0,VALID,100,VALID,-0.0169808,VALID,19.2077,VALID,174,VALID,0.740885,
2008-01-12, 03:38:00,VALID,916.825,VALID,0,VALID,100,VALID,0.0169808,VALID,19.2112,VALID,174,VALID,0.828125,
2008-01-12, 03:39:00,VALID,916.831,VALID,0,VALID,100,VALID,0.0679233,VALID,19.208,VALID,176,VALID,0.598722,
2008-01-12, 03:40:00,VALID,916.846,VALID,0,VALID,100,VALID,0,VALID,19.1947,VALID,169,VALID,0.721294,
2008-01-12, 03:41:00,VALID,916.835,VALID,0,VALID,100,VALID,0.0509425,VALID,19.1848,VALID,171,VALID,0.572266,
2008-01-12, 03:42:00,VALID,916.823,VALID,0,VALID,100,VALID,0.0509425,VALID,19.1827,VALID,163,VALID,0.782031,
2008-01-12, 03:43:00,VALID,916.818,VALID,0,VALID,100,VALID,-0.0849042,VALID,19.164,VALID,167,VALID,0.756098,
2008-01-12, 03:44:00,VALID,916.786,VALID,0,VALID,100,VALID,-0.0339617,VALID,19.1607,VALID,168,VALID,0.861979,
2008-01-12, 03:45:00,VALID,916.764,VALID,0,VALID,100,VALID,-0.0339617,VALID,19.154,VALID,160,VALID,0.853087,
2008-01-12, 03:46:00,VALID,916.738,VALID,0,VALID,100,VALID,-0.0509425,VALID,19.144,VALID,164,VALID,1.07118,
2008-01-12, 03:47:00,VALID,916.731,VALID,0,VALID,100,VALID,-0.101885,VALID,19.1316,VALID,166,VALID,1.20903,
2008-01-12, 03:48:00,VALID,916.719,VALID,0,VALID,100,VALID,-0.0509425,VALID,19.1316,VALID,162,VALID,0.648958,